Find Local Weather

World > North America > United States > Florida

Jacksonville, Florida Regional Weather

Lat: 30.33N, Lon: 81.66W
Wx Zone: FLZ025
Feedback
Expires:201806250800;;078375
ASUS42 KTBW 250716
RWRFL 
FLORIDA REGIONAL WEATHER ROUNDUP
NATIONAL WEATHER SERVICE TAMPA BAY RUSKIN FL
300 AM EDT MON JUN 25 2018

NOTE: "FAIR" INDICATES FEW OR NO CLOUDS BELOW 12,000 FEET WITH NO
SIGNIFICANT WEATHER AND/OR OBSTRUCTIONS TO VISIBILITY.


FLZ011-016>038-118-127-128-134-139-239-250800-
NORTH FLORIDA
  
CITY           SKY/WX    TMP DP  RH WIND       PRES   REMARKS
MARIANNA       FAIR      78  74  87 CALM      30.03F                  
TALLAHASSEE    FAIR      76  71  85 SE3       30.03F                  
PERRY          FAIR      78  74  86 CALM      30.05F                  
LIVE OAK       CLOUDY    77  72  83 CALM      30.06F                  
CROSS CITY     FAIR      73 N/A N/A CALM      30.03F                  
LAKE CITY      FAIR      73  70  88 CALM      30.06F                  
GAINESVILLE    FAIR      76  71  85 NW3       30.08F                  
WILLISTON        N/A     77  77 100 CALM      30.07S                  
PALATKA        FAIR      73  73 100 CALM      30.06F                  
MAYPORT NAS    FAIR      78  75  90 SW6       30.04F                  
JACKSONVILLE   FAIR      77  73  87 W6        30.04F                  
JAX NAS        FAIR      79  72  79 SW5       30.05F                  
JAX CECIL      FAIR      73  73 100 CALM      30.04F                  
FERNANDINA BEA FAIR      80  74  82 W6        30.03F                  
ST AUGUSTINE   FAIR      76  75  97 CALM      30.06F                  
PALM COAST     FAIR      75  74  98 NW3       30.05F                  

STATION/POSITION SKY/WX   TEMP    WIND        PRES    WAVE   SWELL
                          AIR SEA DIR/SP/G            HT/PER HT/PER
                          (F)     (DEG/KT/KT) (MB)    (FT/S) (FT/S)
SHELL POINT      NOT AVBL
KEATON BEACH               79      50/  4/  4 1017.4F
CEDAR KEY                  83     190/  2/  2 1017.5F
FERNANDINA                 82 86  210/  3/  5 1018.2F
30.7N   81.3W                 82                N/A     2/ 4
MAYPORT                    80 85  230/  5/  7 1017.7F
31.4N   80.9W              82 82  190/ 14/ 16 1017.5R   3/ 5
ST AUGUSTINE               78 79  250/  2/  2 1017.8F

$$

SKY/WX - Weather  TMP - Temperature  DP - Dewpoint  RH - Relative Humidity
WIND - Wind Direction/Speed PRES - Barometric Pressure